Weather History for KMSV - October, 2013

Change the Weather History Date:

Tuesday, October 1, 2013

  Actual Average Record
Temperature  
Mean Temperature 58 °F -  
Max Temperature 73 °F 61 °F 75 °F (2002)
Min Temperature 42 °F 41 °F 35 °F (1997)
Degree Days  
Heating Degree Days 8    
Growing Degree Days 8 (Base 50)    
Moisture  
Dew Point 47 °F    
Average Humidity 70    
Maximum Humidity 87    
Minimum Humidity 43    
Precipitation  
Precipitation 0.00 in - - ()
Sea Level Pressure  
Sea Level Pressure 30.02 in    
Wind  
Wind Speed 3 mph (WNW)    
Max Wind Speed 14 mph    
Max Gust Speed 20 mph    
Visibility 10 miles    
Events      
Averages and records for this station are not official NWS values.
T = Trace of Precipitation, MM = Missing Value Source: NWS Daily Summary

Daily Weather History Graph

Daily Weather History Graph

Search for Another Location

Airport or City:

Trip Planner

Search our weather history database for the weather conditions in past years. The results will help you decide how hot, cold, wet, or windy it might be!

Date:

Astronomy

Oct. 01, 2013 Rise Set
Actual Time 6:56 AM EDT 6:40 PM EDT
Civil Twilight 6:28 AM EDT 7:08 PM EDT
Nautical Twilight 5:56 AM EDT 7:40 PM EDT
Astronomical Twilight 5:23 AM EDT 8:12 PM EDT
Moon 3:25 AM EDT (10/1) 4:44 PM EDT (10/1)
Length of Visible Light 12h 39m
Length of Day
11h 44m
Waning Crescent, 12% of the Moon is Illuminated
Oct 1
Waning Crescent
Oct 4
New
Oct 11
First Quarter
Oct 18
Full
Oct 26
Last Quarter

Hourly Weather History & Observations

Time (EDT) Temp. Windchill Dew Point Humidity Pressure Visibility Wind Dir Wind Speed Gust Speed Precip Events Conditions
12:15 AM 48.2 °F - 42.8 °F 82% 30.04 in 10.0 mi North 3.5 mph - N/A   Clear
12:35 AM 48.2 °F - 42.8 °F 82% 30.04 in 10.0 mi Calm Calm - N/A   Clear
12:55 AM 46.4 °F - 42.8 °F 87% 30.04 in 10.0 mi Calm Calm - N/A   Clear
1:15 AM 46.4 °F - 42.8 °F 87% 30.04 in 10.0 mi Calm Calm - N/A   Clear
1:35 AM 46.4 °F - 42.8 °F 87% 30.04 in 10.0 mi Calm Calm - N/A   Clear
1:55 AM 46.4 °F - 42.8 °F 87% 30.04 in 10.0 mi Calm Calm - N/A   Clear
2:15 AM 46.4 °F - 42.8 °F 87% 30.04 in 10.0 mi Calm Calm - N/A   Clear
2:35 AM 46.4 °F - 41.0 °F 81% 30.03 in 10.0 mi Calm Calm - N/A   Clear
2:55 AM 44.6 °F 43.1 °F 41.0 °F 87% 30.03 in 10.0 mi North 3.5 mph - N/A   Clear
3:15 AM 46.4 °F - 41.0 °F 81% 30.03 in 10.0 mi Calm Calm - N/A   Clear
3:35 AM 46.4 °F - 41.0 °F 81% 30.03 in 10.0 mi Calm Calm - N/A   Clear
3:55 AM 46.4 °F - 41.0 °F 81% 30.02 in 10.0 mi Calm Calm - N/A   Clear
4:15 AM 44.6 °F - 39.2 °F 81% 30.03 in 5.0 mi Calm Calm - N/A   Clear
4:35 AM 44.6 °F - 39.2 °F 81% 30.03 in 10.0 mi Calm Calm - N/A   Clear
4:55 AM 44.6 °F 43.1 °F 39.2 °F 81% 30.03 in 10.0 mi North 3.5 mph - N/A   Clear
5:15 AM 44.6 °F - 39.2 °F 81% 30.03 in 10.0 mi Calm Calm - N/A   Clear
5:35 AM 44.6 °F - 39.2 °F 81% 30.04 in 10.0 mi Calm Calm - N/A   Clear
5:55 AM 44.6 °F - 39.2 °F 81% 30.04 in 10.0 mi Calm Calm - N/A   Clear
6:15 AM 44.6 °F - 39.2 °F 81% 30.04 in 10.0 mi Calm Calm - N/A   Clear
6:35 AM 44.6 °F - 37.4 °F 76% 30.05 in 10.0 mi Calm Calm - N/A   Clear
6:55 AM 42.8 °F 41.1 °F 37.4 °F 81% 30.04 in 5.0 mi ESE 3.5 mph - N/A   Partly Cloudy
7:15 AM 42.8 °F - 37.4 °F 81% 30.05 in 10.0 mi Calm Calm - N/A   Clear
7:35 AM 42.8 °F - 37.4 °F 81% 30.06 in 10.0 mi Calm Calm - N/A   Clear
7:55 AM 44.6 °F - 41.0 °F 87% 30.06 in 10.0 mi Calm Calm - N/A   Clear
8:15 AM 46.4 °F - 42.8 °F 87% 30.07 in 10.0 mi Calm Calm - N/A   Clear
8:35 AM 48.2 °F - 44.6 °F 87% 30.06 in 10.0 mi Calm Calm - N/A   Partly Cloudy
8:55 AM 51.8 °F - 44.6 °F 76% 30.06 in 10.0 mi Calm Calm - N/A   Clear
9:15 AM 53.6 °F - 46.4 °F 77% 30.06 in 10.0 mi West 3.5 mph - N/A   Clear
9:35 AM 55.4 °F - 48.2 °F 77% 30.06 in 10.0 mi West 3.5 mph - N/A   Clear
9:55 AM 60.8 °F - 50.0 °F 68% 30.06 in 10.0 mi WNW 4.6 mph - N/A   Clear
10:15 AM 62.6 °F - 51.8 °F 68% 30.06 in 10.0 mi NW 4.6 mph - N/A   Scattered Clouds
10:35 AM 62.6 °F - 51.8 °F 68% 30.06 in 10.0 mi WSW 6.9 mph - N/A   Mostly Cloudy
10:55 AM 64.4 °F - 51.8 °F 64% 30.06 in 10.0 mi WNW 5.8 mph - N/A   Partly Cloudy
11:15 AM 66.2 °F - 53.6 °F 64% 30.05 in 10.0 mi West 8.1 mph - N/A   Clear
11:35 AM 68.0 °F - 51.8 °F 56% 30.04 in 10.0 mi WNW 5.8 mph - N/A   Clear
11:55 AM 69.8 °F - 53.6 °F 56% 30.04 in 10.0 mi WNW 4.6 mph - N/A   Clear
12:15 PM 69.8 °F - 53.6 °F 56% 30.04 in 10.0 mi West 6.9 mph - N/A   Clear
12:35 PM 71.6 °F - 51.8 °F 50% 30.03 in 10.0 mi WSW 6.9 mph - N/A   Clear
12:55 PM 71.6 °F - 51.8 °F 50% 30.02 in 10.0 mi West 8.1 mph - N/A   Clear
1:15 PM 71.6 °F - 48.2 °F 43% 30.01 in 10.0 mi West 6.9 mph - N/A   Clear
1:35 PM 71.6 °F - 53.6 °F 53% 30.01 in 10.0 mi West 9.2 mph - N/A   Clear
1:55 PM 71.6 °F - 53.6 °F 53% 30.00 in 10.0 mi West 10.4 mph - N/A   Clear
2:15 PM 71.6 °F - 53.6 °F 53% 29.99 in 10.0 mi West 8.1 mph - N/A   Clear
2:35 PM 73.4 °F - 51.8 °F 47% 29.99 in 10.0 mi West 13.8 mph 18.4 mph N/A   Mostly Cloudy
2:55 PM 73.4 °F - 51.8 °F 47% 29.99 in 10.0 mi WNW 11.5 mph 19.6 mph N/A   Mostly Cloudy
3:15 PM 71.6 °F - 51.8 °F 50% 29.98 in 10.0 mi West 9.2 mph - N/A   Scattered Clouds
3:35 PM 71.6 °F - 51.8 °F 50% 29.98 in 10.0 mi WNW 10.4 mph - N/A   Mostly Cloudy
3:55 PM 71.6 °F - 51.8 °F 50% 29.97 in 10.0 mi West 8.1 mph - N/A   Mostly Cloudy
4:15 PM 69.8 °F - 51.8 °F 53% 29.97 in 10.0 mi West 6.9 mph - N/A   Mostly Cloudy
4:35 PM 71.6 °F - 51.8 °F 50% 29.97 in 10.0 mi West 9.2 mph - N/A   Scattered Clouds
4:55 PM 71.6 °F - 51.8 °F 50% 29.97 in 10.0 mi West 5.8 mph - N/A   Partly Cloudy
5:15 PM 71.6 °F - 51.8 °F 50% 29.97 in 10.0 mi West 5.8 mph - N/A   Clear
5:35 PM 69.8 °F - 51.8 °F 53% 29.97 in 10.0 mi West 5.8 mph - N/A   Clear
5:55 PM 69.8 °F - 51.8 °F 53% 29.97 in 10.0 mi West 4.6 mph - N/A   Clear
6:15 PM 68.0 °F - 51.8 °F 56% 29.98 in 10.0 mi West 4.6 mph - N/A   Clear
6:35 PM 66.2 °F - 51.8 °F 60% 29.98 in 10.0 mi West 3.5 mph - N/A   Clear
6:55 PM 64.4 °F - 51.8 °F 64% 29.98 in 10.0 mi West 4.6 mph - N/A   Clear
7:15 PM 62.6 °F - 51.8 °F 68% 29.98 in 10.0 mi West 3.5 mph - N/A   Clear
7:35 PM 60.8 °F - 51.8 °F 72% 29.99 in 10.0 mi West 4.6 mph - N/A   Clear
7:55 PM 60.8 °F - 51.8 °F 72% 30.00 in 10.0 mi NW 3.5 mph - N/A   Clear
8:15 PM 60.8 °F - 50.0 °F 68% 30.00 in 10.0 mi Calm Calm - N/A   Clear
8:35 PM 60.8 °F - 50.0 °F 68% 30.00 in 10.0 mi Calm Calm - N/A   Clear
8:55 PM 57.2 °F - 50.0 °F 77% 30.00 in 10.0 mi West 4.6 mph - N/A   Clear
9:15 PM 57.2 °F - 48.2 °F 72% 30.00 in 10.0 mi WNW 4.6 mph - N/A   Clear
9:35 PM 57.2 °F - 48.2 °F 72% 30.00 in 10.0 mi Calm Calm - N/A   Clear
9:55 PM 55.4 °F - 48.2 °F 77% 30.01 in 10.0 mi Calm Calm - N/A   Clear
10:15 PM 55.4 °F - 48.2 °F 77% 30.01 in 10.0 mi Calm Calm - N/A   Clear
10:35 PM 55.4 °F - 48.2 °F 77% 30.00 in 10.0 mi Calm Calm - N/A   Clear
10:55 PM 55.4 °F - 48.2 °F 77% 30.00 in 10.0 mi Calm Calm - N/A   Clear
11:15 PM 53.6 °F - 48.2 °F 82% 30.00 in 10.0 mi Calm Calm - N/A   Clear
11:35 PM 53.6 °F - 48.2 °F 82% 30.00 in 10.0 mi Calm Calm - N/A   Clear
11:55 PM 53.6 °F - 48.2 °F 82% 30.00 in 10.0 mi Calm Calm - N/A   Clear